Time,TemperatureF,DewpointF,PressureIn,WindDirection,WindDirectionDegrees,WindSpeedMPH,WindSpeedGustMPH,Humidity,HourlyPrecipIn,Conditions,Clouds,dailyrainin,SoftwareType,DateUTC
2013-01-30 00:00:00,60.0,60.0,30.03,SSE,157,6.0,6.0,100,0.00,CLR,SKC,0.00,WeatherDisplay:10.37,2013-01-30 05:00:00,
2013-01-30 00:01:00,60.0,60.0,30.03,South,180,6.0,6.0,100,0.00,CLR,SKC,0.00,WeatherDisplay:10.37,2013-01-30 05:01:00,
2013-01-30 00:03:00,60.0,60.0,30.03,SSE,157,9.2,9.2,100,0.00,CLR,SKC,0.00,WeatherDisplay:10.37,2013-01-30 05:03:00,
2013-01-30 00:08:00,60.0,60.0,30.03,SSE,157,8.1,8.1,100,0.00,CLR,SKC,0.00,WeatherDisplay:10.37,2013-01-30 05:08:00,
2013-01-30 00:13:00,60.0,60.0,30.03,South,180,8.1,8.1,100,0.00,CLR,SKC,0.00,WeatherDisplay:10.37,2013-01-30 05:13:00,
2013-01-30 00:18:00,60.0,60.0,30.03,South,180,6.9,6.9,100,0.00,CLR,SKC,0.00,WeatherDisplay:10.37,2013-01-30 05:18:00,
2013-01-30 00:23:00,60.0,60.0,30.03,SSE,157,9.2,9.2,100,0.00,CLR,SKC,0.00,WeatherDisplay:10.37,2013-01-30 05:23:00,
2013-01-30 00:28:00,60.0,60.0,30.03,SSW,202,6.0,6.0,100,0.00,CLR,SKC,0.00,WeatherDisplay:10.37,2013-01-30 05:28:00,
2013-01-30 00:33:00,59.0,59.0,30.03,SSW,202,11.5,11.5,100,0.00,CLR,SKC,0.00,WeatherDisplay:10.37,2013-01-30 05:33:00,
2013-01-30 00:38:00,60.0,60.0,30.04,South,180,6.9,6.9,100,0.00,CLR,SKC,0.00,WeatherDisplay:10.37,2013-01-30 05:38:00,
2013-01-30 00:43:00,59.0,59.0,30.04,South,180,8.1,8.1,100,0.00,CLR,SKC,0.00,WeatherDisplay:10.37,2013-01-30 05:43:00,
2013-01-30 00:48:00,59.0,59.0,30.03,SSW,202,9.2,9.2,100,0.00,CLR,SKC,0.00,WeatherDisplay:10.37,2013-01-30 05:48:00,
2013-01-30 00:53:00,59.0,59.0,30.03,SW,225,5.8,5.8,100,0.00,CLR,SKC,0.00,WeatherDisplay:10.37,2013-01-30 05:53:00,
2013-01-30 00:58:00,59.0,59.0,30.03,SSW,202,8.1,8.1,100,0.00,CLR,SKC,0.00,WeatherDisplay:10.37,2013-01-30 05:58:00,
2013-01-30 01:03:00,59.0,59.0,30.03,SSW,202,4.6,4.6,100,0.00,CLR,SKC,0.00,WeatherDisplay:10.37,2013-01-30 06:03:00,
2013-01-30 01:08:00,59.0,59.0,30.03,SSW,202,4.6,4.6,100,0.00,CLR,SKC,0.00,WeatherDisplay:10.37,2013-01-30 06:08:00,
2013-01-30 01:13:00,59.0,59.0,30.03,South,180,4.6,4.6,100,0.00,CLR,SKC,0.00,WeatherDisplay:10.37,2013-01-30 06:13:00,
2013-01-30 01:18:00,59.0,59.0,30.03,SSW,202,10.4,10.4,100,0.00,CLR,SKC,0.00,WeatherDisplay:10.37,2013-01-30 06:18:00,
2013-01-30 01:23:00,59.0,59.0,30.03,SSE,157,6.9,6.9,100,0.00,CLR,SKC,0.00,WeatherDisplay:10.37,2013-01-30 06:23:00,
2013-01-30 01:28:00,59.0,59.0,30.03,SW,225,8.1,8.1,100,0.00,CLR,SKC,0.00,WeatherDisplay:10.37,2013-01-30 06:28:00,
2013-01-30 01:33:00,59.0,59.0,30.03,SSE,157,5.8,5.8,100,0.00,CLR,SKC,0.00,WeatherDisplay:10.37,2013-01-30 06:33:00,
2013-01-30 01:38:00,59.0,59.0,30.02,South,180,6.9,6.9,100,0.00,CLR,SKC,0.00,WeatherDisplay:10.37,2013-01-30 06:38:00,
2013-01-30 01:43:00,59.0,59.0,30.02,SW,225,6.0,6.0,100,0.00,CLR,SKC,0.00,WeatherDisplay:10.37,2013-01-30 06:43:00,
2013-01-30 01:48:00,59.0,59.0,30.02,SSW,202,8.1,8.1,100,0.00,CLR,SKC,0.00,WeatherDisplay:10.37,2013-01-30 06:48:00,
2013-01-30 01:53:00,59.0,59.0,30.02,SSW,202,9.2,9.2,100,0.00,CLR,SKC,0.00,WeatherDisplay:10.37,2013-01-30 06:53:00,
2013-01-30 01:58:00,59.0,59.0,30.02,SSW,202,6.9,6.9,100,0.00,CLR,SKC,0.00,WeatherDisplay:10.37,2013-01-30 06:58:00,
2013-01-30 02:03:00,59.0,59.0,30.02,SSE,157,8.1,8.1,100,0.00,CLR,SKC,0.00,WeatherDisplay:10.37,2013-01-30 07:03:00,
2013-01-30 02:08:00,60.0,60.0,30.02,SW,225,3.5,3.5,100,0.00,CLR,SKC,0.00,WeatherDisplay:10.37,2013-01-30 07:08:00,
2013-01-30 02:13:00,59.0,59.0,30.02,SSW,202,8.1,8.1,100,0.00,CLR,SKC,0.00,WeatherDisplay:10.37,2013-01-30 07:13:00,
2013-01-30 02:18:00,60.0,60.0,30.01,South,180,6.9,6.9,100,0.00,CLR,SKC,0.00,WeatherDisplay:10.37,2013-01-30 07:18:00,
2013-01-30 02:23:00,59.0,59.0,30.01,SSW,202,9.2,9.2,100,0.00,CLR,SKC,0.00,WeatherDisplay:10.37,2013-01-30 07:23:00,
2013-01-30 02:28:00,59.0,59.0,30.00,SSW,202,8.1,8.1,100,0.00,CLR,SKC,0.00,WeatherDisplay:10.37,2013-01-30 07:28:00,
2013-01-30 02:33:00,59.0,59.0,30.00,South,180,6.9,6.9,100,0.00,CLR,SKC,0.00,WeatherDisplay:10.37,2013-01-30 07:33:00,
2013-01-30 02:38:00,59.0,59.0,30.00,SSE,157,6.9,6.9,100,0.00,CLR,SKC,0.00,WeatherDisplay:10.37,2013-01-30 07:38:00,
2013-01-30 02:43:00,59.0,59.0,30.00,SSW,202,10.4,10.4,100,0.00,CLR,SKC,0.00,WeatherDisplay:10.37,2013-01-30 07:43:00,
2013-01-30 02:48:00,59.0,59.0,30.00,SSW,202,9.2,9.2,100,0.00,CLR,SKC,0.00,WeatherDisplay:10.37,2013-01-30 07:48:00,
2013-01-30 02:53:00,59.0,59.0,30.00,South,180,9.2,9.2,100,0.00,CLR,SKC,0.00,WeatherDisplay:10.37,2013-01-30 07:53:00,
2013-01-30 02:58:00,59.0,59.0,29.99,South,180,8.1,8.1,100,0.00,CLR,SKC,0.00,WeatherDisplay:10.37,2013-01-30 07:58:00,
2013-01-30 03:03:00,59.0,59.0,29.99,SSE,157,10.4,10.4,100,0.00,CLR,SKC,0.00,WeatherDisplay:10.37,2013-01-30 08:03:00,
2013-01-30 03:08:00,59.0,59.0,29.99,SSW,202,5.8,5.8,100,0.00,CLR,SKC,0.00,WeatherDisplay:10.37,2013-01-30 08:08:00,
2013-01-30 03:13:00,59.0,59.0,29.99,South,180,10.0,10.0,100,0.00,CLR,SKC,0.00,WeatherDisplay:10.37,2013-01-30 08:13:00,
2013-01-30 03:18:00,60.0,60.0,29.99,SSW,202,9.2,9.2,100,0.00,CLR,SKC,0.00,WeatherDisplay:10.37,2013-01-30 08:18:00,
2013-01-30 03:23:00,59.0,59.0,29.99,South,180,10.4,10.4,100,0.00,CLR,SKC,0.00,WeatherDisplay:10.37,2013-01-30 08:23:00,
2013-01-30 03:28:00,60.0,60.0,29.98,South,180,11.5,11.5,100,0.00,CLR,SKC,0.00,WeatherDisplay:10.37,2013-01-30 08:28:00,
2013-01-30 03:33:00,60.0,60.0,29.98,South,180,11.5,11.5,100,0.00,CLR,SKC,0.00,WeatherDisplay:10.37,2013-01-30 08:33:00,
2013-01-30 03:38:00,60.0,60.0,29.98,South,180,10.4,10.4,100,0.00,CLR,SKC,0.00,WeatherDisplay:10.37,2013-01-30 08:38:00,
2013-01-30 03:43:00,60.0,60.0,29.98,SSW,202,9.2,9.2,100,0.00,CLR,SKC,0.00,WeatherDisplay:10.37,2013-01-30 08:43:00,
2013-01-30 03:48:00,60.0,60.0,29.97,SW,225,8.1,8.1,100,0.00,CLR,SKC,0.00,WeatherDisplay:10.37,2013-01-30 08:48:00,
2013-01-30 03:53:00,60.0,60.0,29.97,SSW,202,10.4,10.4,100,0.00,CLR,SKC,0.00,WeatherDisplay:10.37,2013-01-30 08:53:00,
2013-01-30 03:58:00,61.0,61.0,29.97,SSW,202,8.1,8.1,100,0.00,CLR,SKC,0.00,WeatherDisplay:10.37,2013-01-30 08:58:00,
2013-01-30 04:03:00,61.0,61.0,29.97,SSW,202,9.2,9.2,100,0.00,CLR,SKC,0.00,WeatherDisplay:10.37,2013-01-30 09:03:00,
2013-01-30 04:08:00,61.0,61.0,29.96,SSE,157,10.4,10.4,100,0.00,CLR,SKC,0.00,WeatherDisplay:10.37,2013-01-30 09:08:00,
2013-01-30 04:13:00,61.0,61.0,29.96,SSE,157,9.2,9.2,100,0.00,CLR,SKC,0.00,WeatherDisplay:10.37,2013-01-30 09:13:00,
2013-01-30 04:18:00,61.0,61.0,29.96,South,180,10.4,10.4,100,0.00,CLR,SKC,0.00,WeatherDisplay:10.37,2013-01-30 09:18:00,
2013-01-30 04:23:00,61.0,61.0,29.96,South,180,11.5,11.5,100,0.00,CLR,SKC,0.00,WeatherDisplay:10.37,2013-01-30 09:23:00,
2013-01-30 04:28:00,62.0,62.0,29.94,SSW,202,12.7,12.7,100,0.00,CLR,SKC,0.00,WeatherDisplay:10.37,2013-01-30 09:28:00,
2013-01-30 04:33:00,61.0,61.0,29.94,SSW,202,9.2,9.2,100,0.00,CLR,SKC,0.00,WeatherDisplay:10.37,2013-01-30 09:33:00,
2013-01-30 04:38:00,62.0,62.0,29.95,SW,225,10.4,10.4,100,0.00,CLR,SKC,0.00,WeatherDisplay:10.37,2013-01-30 09:38:00,
2013-01-30 04:43:00,62.0,62.0,29.95,SSW,202,11.5,11.5,100,0.00,CLR,SKC,0.00,WeatherDisplay:10.37,2013-01-30 09:43:00,
2013-01-30 04:48:00,62.0,62.0,29.95,South,180,9.2,9.2,100,0.00,CLR,SKC,0.00,WeatherDisplay:10.37,2013-01-30 09:48:00,
2013-01-30 04:53:00,62.0,62.0,29.95,SSW,202,15.0,15.0,100,0.00,CLR,SKC,0.00,WeatherDisplay:10.37,2013-01-30 09:53:00,
2013-01-30 04:58:00,62.0,62.0,29.94,South,180,11.5,11.5,100,0.00,CLR,SKC,0.00,WeatherDisplay:10.37,2013-01-30 09:58:00,
2013-01-30 05:03:00,62.0,62.0,29.94,SSW,202,10.4,10.4,100,0.00,CLR,SKC,0.00,WeatherDisplay:10.37,2013-01-30 10:03:00,
2013-01-30 05:08:00,62.0,62.0,29.94,SSW,202,11.5,11.5,100,0.00,CLR,SKC,0.00,WeatherDisplay:10.37,2013-01-30 10:08:00,
2013-01-30 05:13:00,62.0,62.0,29.94,South,180,13.0,13.0,100,0.00,CLR,SKC,0.00,WeatherDisplay:10.37,2013-01-30 10:13:00,
2013-01-30 05:18:00,63.0,63.0,29.93,WSW,247,8.1,8.1,100,0.00,CLR,SKC,0.00,WeatherDisplay:10.37,2013-01-30 10:18:00,
2013-01-30 05:23:00,62.0,62.0,29.93,South,180,15.0,15.0,100,0.00,CLR,SKC,0.00,WeatherDisplay:10.37,2013-01-30 10:23:00,
2013-01-30 05:28:00,63.0,63.0,29.93,SSW,202,11.5,11.5,100,0.00,CLR,SKC,0.00,WeatherDisplay:10.37,2013-01-30 10:28:00,
2013-01-30 05:33:00,62.0,62.0,29.93,SSW,202,8.1,8.1,100,0.00,CLR,SKC,0.00,WeatherDisplay:10.37,2013-01-30 10:33:00,
2013-01-30 05:38:00,63.0,63.0,29.93,SSW,202,15.0,15.0,100,0.00,CLR,SKC,0.00,WeatherDisplay:10.37,2013-01-30 10:38:00,
2013-01-30 05:43:00,63.0,63.0,29.93,ESE,112,9.2,9.2,100,0.00,CLR,SKC,0.00,WeatherDisplay:10.37,2013-01-30 10:43:00,
2013-01-30 05:48:00,63.0,63.0,29.93,SSW,202,9.2,9.2,100,0.00,CLR,SKC,0.00,WeatherDisplay:10.37,2013-01-30 10:48:00,
2013-01-30 05:53:00,63.0,63.0,29.93,SW,225,9.0,9.0,100,0.00,CLR,SKC,0.00,WeatherDisplay:10.37,2013-01-30 10:53:00,
2013-01-30 05:58:00,63.0,63.0,29.93,South,180,12.7,12.7,100,0.00,CLR,SKC,0.00,WeatherDisplay:10.37,2013-01-30 10:58:00,
2013-01-30 06:03:00,63.0,63.0,29.93,SSW,202,6.9,6.9,100,0.00,CLR,SKC,0.00,WeatherDisplay:10.37,2013-01-30 11:03:00,
2013-01-30 06:08:00,63.0,63.0,29.93,SSE,157,9.2,9.2,100,0.00,CLR,SKC,0.00,WeatherDisplay:10.37,2013-01-30 11:08:00,
2013-01-30 06:13:00,63.0,63.0,29.92,South,180,8.1,8.1,100,0.00,CLR,SKC,0.00,WeatherDisplay:10.37,2013-01-30 11:13:00,
2013-01-30 06:18:00,63.0,63.0,29.91,SSE,157,11.5,11.5,100,0.00,CLR,SKC,0.00,WeatherDisplay:10.37,2013-01-30 11:18:00,
2013-01-30 06:23:00,63.0,63.0,29.91,ESE,112,16.1,16.1,100,0.00,CLR,SKC,0.00,WeatherDisplay:10.37,2013-01-30 11:23:00,
2013-01-30 06:28:00,63.0,63.0,29.91,WSW,247,10.0,10.0,100,0.00,CLR,SKC,0.00,WeatherDisplay:10.37,2013-01-30 11:28:00,
2013-01-30 06:33:00,63.0,63.0,29.91,SSW,202,10.4,10.4,100,0.00,CLR,SKC,0.00,WeatherDisplay:10.37,2013-01-30 11:33:00,
2013-01-30 06:38:00,63.0,63.0,29.91,SSW,202,11.5,11.5,100,0.00,CLR,SKC,0.00,WeatherDisplay:10.37,2013-01-30 11:38:00,
2013-01-30 06:43:00,63.0,63.0,29.91,SSW,202,9.2,9.2,100,0.00,CLR,SKC,0.00,WeatherDisplay:10.37,2013-01-30 11:43:00,
2013-01-30 06:48:00,63.0,63.0,29.90,SW,225,11.5,11.5,100,0.00,CLR,SKC,0.00,WeatherDisplay:10.37,2013-01-30 11:48:00,
2013-01-30 06:53:00,63.0,63.0,29.90,South,180,10.4,10.4,100,0.00,CLR,SKC,0.00,WeatherDisplay:10.37,2013-01-30 11:53:00,
2013-01-30 06:58:00,63.0,63.0,29.90,SE,135,10.4,10.4,100,0.00,CLR,SKC,0.00,WeatherDisplay:10.37,2013-01-30 11:58:00,
2013-01-30 07:03:00,63.0,63.0,29.90,SSE,157,9.2,9.2,100,0.00,CLR,SKC,0.00,WeatherDisplay:10.37,2013-01-30 12:03:00,
2013-01-30 07:08:00,64.0,64.0,29.89,SSE,157,18.4,18.4,100,0.00,CLR,SKC,0.00,WeatherDisplay:10.37,2013-01-30 12:08:00,
2013-01-30 07:13:00,63.0,63.0,29.89,South,180,12.7,12.7,100,0.00,CLR,SKC,0.00,WeatherDisplay:10.37,2013-01-30 12:13:00,
2013-01-30 07:18:00,64.0,64.0,29.89,South,180,15.0,15.0,100,0.00,CLR,SKC,0.00,WeatherDisplay:10.37,2013-01-30 12:18:00,
2013-01-30 07:23:00,64.0,64.0,29.89,SSW,202,11.5,11.5,100,0.00,CLR,SKC,0.00,WeatherDisplay:10.37,2013-01-30 12:23:00,
2013-01-30 07:28:00,64.0,64.0,29.90,SSW,202,19.6,19.6,100,0.00,CLR,SKC,0.00,WeatherDisplay:10.37,2013-01-30 12:28:00,
2013-01-30 07:33:00,64.0,64.0,29.90,WSW,247,5.8,5.8,100,0.00,CLR,SKC,0.00,WeatherDisplay:10.37,2013-01-30 12:33:00,
2013-01-30 07:38:00,64.0,64.0,29.90,SW,225,8.1,8.1,100,0.00,CLR,SKC,0.00,WeatherDisplay:10.37,2013-01-30 12:38:00,
2013-01-30 07:43:00,64.0,64.0,29.90,SSW,202,19.6,19.6,100,0.00,CLR,SKC,0.00,WeatherDisplay:10.37,2013-01-30 12:43:00,
2013-01-30 07:48:00,64.0,64.0,29.89,SSW,202,11.5,11.5,100,0.00,CLR,SKC,0.00,WeatherDisplay:10.37,2013-01-30 12:48:00,
2013-01-30 07:53:00,64.0,64.0,29.89,SW,225,10.4,10.4,100,0.00,CLR,SKC,0.00,WeatherDisplay:10.37,2013-01-30 12:53:00,
2013-01-30 07:58:00,64.0,64.0,29.89,SSW,202,17.3,17.3,100,0.00,CLR,SKC,0.00,WeatherDisplay:10.37,2013-01-30 12:58:00,
2013-01-30 08:03:00,64.0,64.0,29.89,South,180,9.2,9.2,100,0.00,CLR,SKC,0.00,WeatherDisplay:10.37,2013-01-30 13:03:00,
2013-01-30 08:08:00,64.0,64.0,29.89,SSW,202,16.1,16.1,100,0.00,CLR,SKC,0.00,WeatherDisplay:10.37,2013-01-30 13:08:00,
2013-01-30 08:13:00,64.0,64.0,29.89,SSW,202,15.0,15.0,100,0.00,CLR,SKC,0.00,WeatherDisplay:10.37,2013-01-30 13:13:00,
2013-01-30 08:18:00,64.0,64.0,29.89,SSW,202,11.5,11.5,100,0.00,CLR,SKC,0.00,WeatherDisplay:10.37,2013-01-30 13:18:00,
2013-01-30 08:23:00,64.0,64.0,29.89,South,180,10.4,10.4,100,0.00,CLR,SKC,0.00,WeatherDisplay:10.37,2013-01-30 13:23:00,
2013-01-30 08:28:00,64.0,64.0,29.88,South,180,8.1,8.1,100,0.00,CLR,SKC,0.00,WeatherDisplay:10.37,2013-01-30 13:28:00,
2013-01-30 08:33:00,64.0,64.0,29.88,SSE,157,15.0,15.0,100,0.00,CLR,SKC,0.00,WeatherDisplay:10.37,2013-01-30 13:33:00,
2013-01-30 08:38:00,64.0,64.0,29.88,SSW,202,16.0,16.0,100,0.00,CLR,SKC,0.00,WeatherDisplay:10.37,2013-01-30 13:38:00,
2013-01-30 08:43:00,64.0,64.0,29.88,SW,225,13.8,13.8,100,0.00,CLR,SKC,0.00,WeatherDisplay:10.37,2013-01-30 13:43:00,
2013-01-30 08:48:00,64.0,64.0,29.87,SW,225,11.5,11.5,100,0.00,CLR,SKC,0.00,WeatherDisplay:10.37,2013-01-30 13:48:00,
2013-01-30 08:53:00,64.0,64.0,29.87,SSE,157,9.2,9.2,100,0.00,CLR,SKC,0.00,WeatherDisplay:10.37,2013-01-30 13:53:00,
2013-01-30 08:58:00,65.0,65.0,29.87,South,180,11.5,11.5,100,0.00,CLR,SKC,0.00,WeatherDisplay:10.37,2013-01-30 13:58:00,
2013-01-30 09:03:00,64.0,64.0,29.87,South,180,9.2,9.2,100,0.00,CLR,SKC,0.00,WeatherDisplay:10.37,2013-01-30 14:03:00,
2013-01-30 09:08:00,65.0,65.0,29.86,SW,225,10.4,10.4,100,0.00,CLR,SKC,0.00,WeatherDisplay:10.37,2013-01-30 14:08:00,
2013-01-30 09:13:00,65.0,65.0,29.86,SSW,202,11.5,11.5,100,0.00,CLR,SKC,0.00,WeatherDisplay:10.37,2013-01-30 14:13:00,
2013-01-30 09:18:00,65.0,65.0,29.86,SSW,202,15.0,15.0,100,0.00,CLR,SKC,0.00,WeatherDisplay:10.37,2013-01-30 14:18:00,
2013-01-30 09:23:00,65.0,65.0,29.86,SSW,202,15.0,15.0,100,0.00,CLR,SKC,0.00,WeatherDisplay:10.37,2013-01-30 14:23:00,
2013-01-30 09:28:00,65.0,65.0,29.85,SW,225,12.7,12.7,100,0.00,CLR,SKC,0.00,WeatherDisplay:10.37,2013-01-30 14:28:00,
2013-01-30 09:33:00,65.0,65.0,29.85,SSW,202,6.9,6.9,100,0.00,CLR,SKC,0.00,WeatherDisplay:10.37,2013-01-30 14:33:00,
2013-01-30 09:38:00,66.0,66.0,29.84,SSW,202,19.6,19.6,100,0.00,CLR,SKC,0.00,WeatherDisplay:10.37,2013-01-30 14:38:00,
2013-01-30 09:43:00,65.0,65.0,29.84,South,180,16.1,16.1,100,0.00,CLR,SKC,0.00,WeatherDisplay:10.37,2013-01-30 14:43:00,
2013-01-30 09:48:00,66.0,66.0,29.85,South,180,13.0,13.0,100,0.00,CLR,SKC,0.00,WeatherDisplay:10.37,2013-01-30 14:48:00,
2013-01-30 09:53:00,66.0,66.0,29.85,SW,225,16.1,16.1,100,0.00,CLR,SKC,0.00,WeatherDisplay:10.37,2013-01-30 14:53:00,
2013-01-30 09:58:00,66.0,65.4,29.83,South,180,13.8,13.8,98,0.00,CLR,SKC,0.00,WeatherDisplay:10.37,2013-01-30 14:58:00,
2013-01-30 10:03:00,66.0,65.4,29.83,SSW,202,11.5,11.5,98,0.00,CLR,SKC,0.00,WeatherDisplay:10.37,2013-01-30 15:03:00,
2013-01-30 10:08:00,67.0,66.4,29.83,SW,225,11.5,11.5,98,0.00,CLR,SKC,0.00,WeatherDisplay:10.37,2013-01-30 15:08:00,
2013-01-30 10:13:00,66.0,65.4,29.83,SW,225,15.0,15.0,98,0.00,CLR,SKC,0.00,WeatherDisplay:10.37,2013-01-30 15:13:00,
2013-01-30 10:18:00,67.0,65.8,29.83,SSW,202,12.7,12.7,96,0.00,CLR,SKC,0.00,WeatherDisplay:10.37,2013-01-30 15:18:00,
2013-01-30 10:23:00,66.0,65.1,29.83,ESE,112,19.6,19.6,97,0.00,CLR,SKC,0.00,WeatherDisplay:10.37,2013-01-30 15:23:00,
2013-01-30 10:28:00,67.0,65.8,29.83,South,180,15.0,15.0,96,0.00,CLR,SKC,0.00,WeatherDisplay:10.37,2013-01-30 15:28:00,
2013-01-30 10:33:00,66.0,65.1,29.83,SSW,202,9.2,9.2,97,0.00,CLR,SKC,0.00,WeatherDisplay:10.37,2013-01-30 15:33:00,
2013-01-30 10:38:00,67.0,65.8,29.83,SSE,157,16.0,16.0,96,0.00,CLR,SKC,0.00,WeatherDisplay:10.37,2013-01-30 15:38:00,
2013-01-30 10:43:00,66.0,65.1,29.83,SSW,202,12.7,12.7,97,0.00,CLR,SKC,0.00,WeatherDisplay:10.37,2013-01-30 15:43:00,
2013-01-30 10:48:00,67.0,65.8,29.83,SSW,202,17.3,17.3,96,0.00,CLR,SKC,0.00,WeatherDisplay:10.37,2013-01-30 15:48:00,
2013-01-30 10:53:00,67.0,65.8,29.83,SSE,157,12.7,12.7,96,0.00,CLR,SKC,0.00,WeatherDisplay:10.37,2013-01-30 15:53:00,
2013-01-30 10:58:00,67.0,65.8,29.82,SW,225,12.7,12.7,96,0.00,CLR,SKC,0.00,WeatherDisplay:10.37,2013-01-30 15:58:00,
2013-01-30 11:03:00,67.0,65.8,29.82,South,180,9.2,9.2,96,0.00,CLR,SKC,0.00,WeatherDisplay:10.37,2013-01-30 16:03:00,
2013-01-30 11:08:00,67.0,65.5,29.82,South,180,18.4,18.4,95,0.00,CLR,SKC,0.00,WeatherDisplay:10.37,2013-01-30 16:08:00,
2013-01-30 11:13:00,67.0,65.5,29.82,SSW,202,10.4,10.4,95,0.00,CLR,SKC,0.00,WeatherDisplay:10.37,2013-01-30 16:13:00,
2013-01-30 11:18:00,67.0,65.5,29.82,SW,225,15.0,15.0,95,0.00,CLR,SKC,0.00,WeatherDisplay:10.37,2013-01-30 16:18:00,
2013-01-30 11:23:00,67.0,65.5,29.82,West,270,11.5,11.5,95,0.00,CLR,SKC,0.00,WeatherDisplay:10.37,2013-01-30 16:23:00,
2013-01-30 11:28:00,68.0,66.2,29.81,SE,135,11.5,11.5,94,0.00,CLR,SKC,0.00,WeatherDisplay:10.37,2013-01-30 16:28:00,
2013-01-30 11:33:00,67.0,65.2,29.81,SSW,202,13.8,13.8,94,0.00,CLR,SKC,0.00,WeatherDisplay:10.37,2013-01-30 16:33:00,
2013-01-30 11:38:00,68.0,65.9,29.81,South,180,11.5,11.5,93,0.00,CLR,SKC,0.00,WeatherDisplay:10.37,2013-01-30 16:38:00,
2013-01-30 11:43:00,68.0,65.9,29.81,SSW,202,15.0,15.0,93,0.00,CLR,SKC,0.00,WeatherDisplay:10.37,2013-01-30 16:43:00,
2013-01-30 11:48:00,68.0,65.9,29.80,SSE,157,27.6,27.6,93,0.00,CLR,SKC,0.00,WeatherDisplay:10.37,2013-01-30 16:48:00,
2013-01-30 11:53:00,68.0,65.9,29.80,SSW,202,19.6,19.6,93,0.00,CLR,SKC,0.00,WeatherDisplay:10.37,2013-01-30 16:53:00,
2013-01-30 11:58:00,68.0,65.6,29.78,SW,225,12.0,12.0,92,0.00,CLR,SKC,0.00,WeatherDisplay:10.37,2013-01-30 16:58:00,
2013-01-30 12:03:00,68.0,65.9,29.78,SSW,202,19.6,19.6,93,0.00,CLR,SKC,0.00,WeatherDisplay:10.37,2013-01-30 17:03:00,
2013-01-30 12:08:00,68.0,65.6,29.77,SSE,157,14.0,14.0,92,0.00,CLR,SKC,0.00,WeatherDisplay:10.37,2013-01-30 17:08:00,
2013-01-30 12:13:00,68.0,65.9,29.77,SSE,157,11.5,11.5,93,0.00,CLR,SKC,0.00,WeatherDisplay:10.37,2013-01-30 17:13:00,
2013-01-30 12:18:00,68.0,65.9,29.76,SSE,157,13.0,13.0,93,0.00,CLR,SKC,0.00,WeatherDisplay:10.37,2013-01-30 17:18:00,
2013-01-30 12:23:00,68.0,66.2,29.76,South,180,19.6,19.6,94,0.00,CLR,SKC,0.00,WeatherDisplay:10.37,2013-01-30 17:23:00,
2013-01-30 12:28:00,68.0,65.9,29.76,South,180,11.5,11.5,93,0.00,CLR,SKC,0.00,WeatherDisplay:10.37,2013-01-30 17:28:00,
2013-01-30 12:33:00,68.0,65.9,29.76,SSW,202,16.1,16.1,93,0.00,CLR,SKC,0.00,WeatherDisplay:10.37,2013-01-30 17:33:00,
2013-01-30 12:38:00,68.0,65.9,29.75,South,180,18.4,18.4,93,0.00,CLR,SKC,0.00,WeatherDisplay:10.37,2013-01-30 17:38:00,
2013-01-30 12:43:00,68.0,65.9,29.75,SSE,157,11.5,11.5,93,0.00,CLR,SKC,0.00,WeatherDisplay:10.37,2013-01-30 17:43:00,
2013-01-30 12:48:00,68.0,65.6,29.73,SSE,157,11.5,11.5,92,0.00,CLR,SKC,0.00,WeatherDisplay:10.37,2013-01-30 17:48:00,
2013-01-30 12:53:00,68.0,65.9,29.73,South,180,16.0,16.0,93,0.00,CLR,SKC,0.00,WeatherDisplay:10.37,2013-01-30 17:53:00,
2013-01-30 12:58:00,68.0,65.9,29.73,SSW,202,17.3,17.3,93,0.00,CLR,SKC,0.00,WeatherDisplay:10.37,2013-01-30 17:58:00,
2013-01-30 13:03:00,68.0,66.2,29.73,SSW,202,16.1,16.1,94,0.00,CLR,SKC,0.00,WeatherDisplay:10.37,2013-01-30 18:03:00,
2013-01-30 13:08:00,68.0,66.5,29.73,South,180,10.4,10.4,95,0.00,CLR,SKC,0.00,WeatherDisplay:10.37,2013-01-30 18:08:00,
2013-01-30 13:13:00,67.0,65.8,29.73,South,180,11.5,11.5,96,0.00,CLR,SKC,0.00,WeatherDisplay:10.37,2013-01-30 18:13:00,
2013-01-30 13:18:00,67.0,66.1,29.73,South,180,16.0,16.0,97,0.00,CLR,SKC,0.00,WeatherDisplay:10.37,2013-01-30 18:18:00,
2013-01-30 13:23:00,67.0,66.4,29.73,SE,135,24.2,24.2,98,0.00,CLR,SKC,0.00,WeatherDisplay:10.37,2013-01-30 18:23:00,
2013-01-30 13:28:00,67.0,66.4,29.72,SSE,157,11.5,11.5,98,0.00,CLR,SKC,0.00,WeatherDisplay:10.37,2013-01-30 18:28:00,
2013-01-30 13:33:00,67.0,66.7,29.72,SSE,157,17.3,17.3,99,0.00,CLR,SKC,0.00,WeatherDisplay:10.37,2013-01-30 18:33:00,
2013-01-30 13:38:00,67.0,66.4,29.72,SSW,202,15.0,15.0,98,0.00,CLR,SKC,0.00,WeatherDisplay:10.37,2013-01-30 18:38:00,
2013-01-30 13:43:00,67.0,66.7,29.72,SSW,202,10.4,10.4,99,0.00,CLR,SKC,0.00,WeatherDisplay:10.37,2013-01-30 18:43:00,
2013-01-30 13:48:00,67.0,66.7,29.71,South,180,19.6,19.6,99,0.00,CLR,SKC,0.00,WeatherDisplay:10.37,2013-01-30 18:48:00,
2013-01-30 13:53:00,67.0,67.0,29.71,SSW,202,16.1,16.1,100,0.00,CLR,SKC,0.00,WeatherDisplay:10.37,2013-01-30 18:53:00,
2013-01-30 13:58:00,67.0,67.0,29.71,SW,225,17.3,17.3,100,0.00,CLR,SKC,0.00,WeatherDisplay:10.37,2013-01-30 18:58:00,
2013-01-30 14:03:00,67.0,67.0,29.71,SSE,157,24.2,24.2,100,0.00,CLR,SKC,0.00,WeatherDisplay:10.37,2013-01-30 19:03:00,
2013-01-30 14:08:00,67.0,67.0,29.70,South,180,13.8,13.8,100,0.00,CLR,SKC,0.00,WeatherDisplay:10.37,2013-01-30 19:08:00,
2013-01-30 14:14:00,67.0,67.0,29.70,South,180,17.3,17.3,100,0.00,CLR,SKC,0.00,WeatherDisplay:10.37,2013-01-30 19:14:00,
2013-01-30 14:19:00,67.0,67.0,29.69,SE,135,11.5,11.5,100,0.00,CLR,SKC,0.00,WeatherDisplay:10.37,2013-01-30 19:19:00,
2013-01-30 14:24:00,67.0,66.4,29.69,SSW,202,19.6,19.6,98,0.00,CLR,SKC,0.00,WeatherDisplay:10.37,2013-01-30 19:24:00,
2013-01-30 14:29:00,68.0,67.1,29.69,South,180,19.6,19.6,97,0.00,CLR,SKC,0.00,WeatherDisplay:10.37,2013-01-30 19:29:00,
2013-01-30 14:34:00,68.0,67.1,29.69,South,180,21.9,21.9,97,0.00,CLR,SKC,0.00,WeatherDisplay:10.37,2013-01-30 19:34:00,
2013-01-30 14:39:00,68.0,67.1,29.67,SSW,202,16.1,16.1,97,0.00,CLR,SKC,0.00,WeatherDisplay:10.37,2013-01-30 19:39:00,
2013-01-30 14:44:00,68.0,67.1,29.67,SW,225,14.0,14.0,97,0.00,CLR,SKC,0.00,WeatherDisplay:10.37,2013-01-30 19:44:00,
2013-01-30 14:49:00,68.0,66.8,29.66,South,180,17.3,17.3,96,0.00,CLR,SKC,0.00,WeatherDisplay:10.37,2013-01-30 19:49:00,
2013-01-30 14:54:00,68.0,66.8,29.66,South,180,10.4,11.2,96,0.00,CLR,SKC,0.00,WeatherDisplay:10.37,2013-01-30 19:54:00,
2013-01-30 14:59:00,68.0,66.8,29.65,SSW,202,6.9,6.9,96,0.00,CLR,SKC,0.00,WeatherDisplay:10.37,2013-01-30 19:59:00,
2013-01-30 15:04:00,68.0,66.8,29.65,South,180,11.5,11.5,96,0.00,CLR,SKC,0.00,WeatherDisplay:10.37,2013-01-30 20:04:00,
2013-01-30 15:09:00,68.0,66.5,29.65,SSE,157,19.6,19.6,95,0.00,CLR,SKC,0.00,WeatherDisplay:10.37,2013-01-30 20:09:00,
2013-01-30 15:14:00,68.0,65.9,29.65,South,180,13.8,13.8,93,0.00,CLR,SKC,0.00,WeatherDisplay:10.37,2013-01-30 20:14:00,
2013-01-30 15:19:00,69.0,66.3,29.64,South,180,13.8,13.8,91,0.00,CLR,SKC,0.00,WeatherDisplay:10.37,2013-01-30 20:19:00,
2013-01-30 15:24:00,69.0,66.3,29.64,SSE,157,19.6,19.6,91,0.00,CLR,SKC,0.00,WeatherDisplay:10.37,2013-01-30 20:24:00,
2013-01-30 15:29:00,69.0,65.9,29.63,SSE,157,12.7,12.7,90,0.00,CLR,SKC,0.00,WeatherDisplay:10.37,2013-01-30 20:29:00,
2013-01-30 15:34:00,69.0,65.9,29.63,SSW,202,17.3,17.3,90,0.00,CLR,SKC,0.00,WeatherDisplay:10.37,2013-01-30 20:34:00,
2013-01-30 15:39:00,69.0,65.9,29.62,South,180,15.0,15.0,90,0.00,CLR,SKC,0.00,WeatherDisplay:10.37,2013-01-30 20:39:00,
2013-01-30 15:44:00,69.0,65.6,29.62,South,180,17.3,17.3,89,0.00,CLR,SKC,0.00,WeatherDisplay:10.37,2013-01-30 20:44:00,
2013-01-30 15:49:00,70.0,66.6,29.62,South,180,13.8,13.8,89,0.00,CLR,SKC,0.00,WeatherDisplay:10.37,2013-01-30 20:49:00,
2013-01-30 15:54:00,69.0,65.0,29.62,South,180,16.1,16.1,87,0.00,CLR,SKC,0.00,WeatherDisplay:10.37,2013-01-30 20:54:00,
2013-01-30 15:59:00,70.0,66.0,29.61,SSE,157,17.3,17.3,87,0.00,CLR,SKC,0.00,WeatherDisplay:10.37,2013-01-30 20:59:00,
2013-01-30 16:04:00,70.0,66.0,29.61,SSE,157,22.0,22.0,87,0.00,CLR,SKC,0.00,WeatherDisplay:10.37,2013-01-30 21:04:00,
2013-01-30 16:09:00,70.0,65.6,29.61,SSE,157,13.0,13.0,86,0.00,CLR,SKC,0.00,WeatherDisplay:10.37,2013-01-30 21:09:00,
2013-01-30 16:14:00,70.0,65.6,29.61,SSE,157,19.6,19.6,86,0.00,CLR,SKC,0.00,WeatherDisplay:10.37,2013-01-30 21:14:00,
2013-01-30 16:19:00,70.0,65.3,29.60,SSW,202,17.3,17.3,85,0.00,CLR,SKC,0.00,WeatherDisplay:10.37,2013-01-30 21:19:00,
2013-01-30 16:24:00,70.0,65.3,29.60,South,180,19.6,19.6,85,0.00,CLR,SKC,0.00,WeatherDisplay:10.37,2013-01-30 21:24:00,
2013-01-30 16:29:00,70.0,64.9,29.60,SE,135,21.9,21.9,84,0.00,CLR,SKC,0.00,WeatherDisplay:10.37,2013-01-30 21:29:00,
2013-01-30 16:34:00,70.0,64.9,29.60,SSE,157,17.3,17.3,84,0.00,CLR,SKC,0.00,WeatherDisplay:10.37,2013-01-30 21:34:00,
2013-01-30 16:39:00,70.0,64.9,29.59,South,180,17.3,17.3,84,0.00,CLR,SKC,0.00,WeatherDisplay:10.37,2013-01-30 21:39:00,
2013-01-30 16:44:00,70.0,64.9,29.59,South,180,26.5,26.5,84,0.00,CLR,SKC,0.00,WeatherDisplay:10.37,2013-01-30 21:44:00,
2013-01-30 16:49:00,70.0,64.9,29.59,SSE,157,17.3,17.3,84,0.00,CLR,SKC,0.00,WeatherDisplay:10.37,2013-01-30 21:49:00,
2013-01-30 16:54:00,70.0,64.9,29.59,WSW,247,17.3,17.3,84,0.00,CLR,SKC,0.00,WeatherDisplay:10.37,2013-01-30 21:54:00,
2013-01-30 16:59:00,70.0,64.9,29.59,SSW,202,19.6,19.6,84,0.00,CLR,SKC,0.00,WeatherDisplay:10.37,2013-01-30 21:59:00,
2013-01-30 17:04:00,70.0,64.9,29.59,SSW,202,15.0,15.0,84,0.00,CLR,SKC,0.00,WeatherDisplay:10.37,2013-01-30 22:04:00,
2013-01-30 17:09:00,70.0,64.9,29.59,SW,225,11.5,11.5,84,0.00,CLR,SKC,0.00,WeatherDisplay:10.37,2013-01-30 22:09:00,
2013-01-30 17:14:00,70.0,64.9,29.59,SSW,202,23.0,23.0,84,0.00,CLR,SKC,0.00,WeatherDisplay:10.37,2013-01-30 22:14:00,
2013-01-30 17:19:00,70.0,64.9,29.59,SW,225,19.0,19.0,84,0.00,CLR,SKC,0.00,WeatherDisplay:10.37,2013-01-30 22:19:00,
2013-01-30 17:24:00,70.0,65.3,29.59,SSW,202,21.0,21.0,85,0.00,CLR,SKC,0.00,WeatherDisplay:10.37,2013-01-30 22:24:00,
2013-01-30 17:29:00,70.0,65.3,29.59,SSE,157,16.1,16.1,85,0.00,CLR,SKC,0.00,WeatherDisplay:10.37,2013-01-30 22:29:00,
2013-01-30 17:34:00,69.0,64.3,29.59,SSE,157,19.0,19.0,85,0.00,CLR,SKC,0.00,WeatherDisplay:10.37,2013-01-30 22:34:00,
2013-01-30 17:39:00,70.0,65.6,29.57,South,180,21.9,21.9,86,0.00,CLR,SKC,0.00,WeatherDisplay:10.37,2013-01-30 22:39:00,
2013-01-30 17:44:00,69.0,64.3,29.57,SSE,157,19.6,19.6,85,0.00,CLR,SKC,0.00,WeatherDisplay:10.37,2013-01-30 22:44:00,
2013-01-30 17:49:00,69.0,64.3,29.57,South,180,19.6,19.6,85,0.00,CLR,SKC,0.00,WeatherDisplay:10.37,2013-01-30 22:49:00,
2013-01-30 17:54:00,69.0,64.3,29.57,South,180,19.6,19.6,85,0.00,CLR,SKC,0.00,WeatherDisplay:10.37,2013-01-30 22:54:00,
2013-01-30 17:59:00,69.0,64.0,29.57,SSW,202,21.9,21.9,84,0.00,CLR,SKC,0.00,WeatherDisplay:10.37,2013-01-30 22:59:00,
2013-01-30 18:04:00,69.0,64.0,29.57,SSE,157,20.7,20.7,84,0.00,CLR,SKC,0.00,WeatherDisplay:10.37,2013-01-30 23:04:00,
2013-01-30 18:09:00,69.0,64.0,29.57,SW,225,16.1,16.1,84,0.00,CLR,SKC,0.00,WeatherDisplay:10.37,2013-01-30 23:09:00,
2013-01-30 18:14:00,69.0,64.3,29.57,SSE,157,10.4,10.4,85,0.00,CLR,SKC,0.00,WeatherDisplay:10.37,2013-01-30 23:14:00,
2013-01-30 18:19:00,69.0,64.3,29.57,SSW,202,21.9,21.9,85,0.00,CLR,SKC,0.00,WeatherDisplay:10.37,2013-01-30 23:19:00,
2013-01-30 18:24:00,69.0,64.3,29.57,SSW,202,12.0,12.0,85,0.00,CLR,SKC,0.00,WeatherDisplay:10.37,2013-01-30 23:24:00,
2013-01-30 18:29:00,69.0,64.3,29.55,SW,225,19.6,19.6,85,0.00,CLR,SKC,0.00,WeatherDisplay:10.37,2013-01-30 23:29:00,
2013-01-30 18:34:00,69.0,64.3,29.55,SSW,202,16.1,16.1,85,0.00,CLR,SKC,0.00,WeatherDisplay:10.37,2013-01-30 23:34:00,
2013-01-30 18:39:00,69.0,64.0,29.55,South,180,20.7,20.7,84,0.00,CLR,SKC,0.00,WeatherDisplay:10.37,2013-01-30 23:39:00,
2013-01-30 18:44:00,69.0,64.0,29.55,SSW,202,23.0,23.0,84,0.00,CLR,SKC,0.00,WeatherDisplay:10.37,2013-01-30 23:44:00,
2013-01-30 18:49:00,69.0,64.0,29.53,South,180,20.7,20.7,84,0.00,CLR,SKC,0.00,WeatherDisplay:10.37,2013-01-30 23:49:00,
2013-01-30 18:54:00,69.0,64.0,29.53,South,180,15.0,15.0,84,0.00,CLR,SKC,0.00,WeatherDisplay:10.37,2013-01-30 23:54:00,
2013-01-30 18:59:00,69.0,63.6,29.53,South,180,19.6,19.6,83,0.00,CLR,SKC,0.00,WeatherDisplay:10.37,2013-01-30 23:59:00,
2013-01-30 19:04:00,69.0,64.0,29.53,South,180,17.3,17.3,84,0.00,CLR,SKC,0.00,WeatherDisplay:10.37,2013-01-31 00:04:00,
2013-01-30 19:09:00,69.0,64.0,29.52,South,180,24.2,24.2,84,0.00,CLR,SKC,0.00,WeatherDisplay:10.37,2013-01-31 00:09:00,
2013-01-30 19:14:00,69.0,64.3,29.52,SSW,202,19.6,19.6,85,0.00,CLR,SKC,0.00,WeatherDisplay:10.37,2013-01-31 00:14:00,
2013-01-30 19:19:00,69.0,64.3,29.52,SSW,202,17.3,17.3,85,0.00,CLR,SKC,0.00,WeatherDisplay:10.37,2013-01-31 00:19:00,
2013-01-30 19:24:00,69.0,64.3,29.52,South,180,24.2,24.2,85,0.00,CLR,SKC,0.00,WeatherDisplay:10.37,2013-01-31 00:24:00,
2013-01-30 19:29:00,69.0,64.3,29.51,SSW,202,18.4,18.4,85,0.00,CLR,SKC,0.00,WeatherDisplay:10.37,2013-01-31 00:29:00,
2013-01-30 19:34:00,68.0,63.7,29.51,SSE,157,19.6,19.6,86,0.00,CLR,SKC,0.00,WeatherDisplay:10.37,2013-01-31 00:34:00,
2013-01-30 19:39:00,69.0,64.6,29.50,SSE,157,20.7,20.7,86,0.00,CLR,SKC,0.00,WeatherDisplay:10.37,2013-01-31 00:39:00,
2013-01-30 19:44:00,68.0,63.7,29.50,SSE,157,20.7,20.7,86,0.00,CLR,SKC,0.00,WeatherDisplay:10.37,2013-01-31 00:44:00,
2013-01-30 19:49:00,69.0,64.3,29.48,SSW,202,26.5,26.5,85,0.00,CLR,SKC,0.00,WeatherDisplay:10.37,2013-01-31 00:49:00,
2013-01-30 19:54:00,68.0,63.3,29.48,South,180,18.4,18.4,85,0.00,CLR,SKC,0.00,WeatherDisplay:10.37,2013-01-31 00:54:00,
2013-01-30 19:59:00,69.0,64.3,29.50,SSE,157,14.0,14.0,85,0.00,CLR,SKC,0.00,WeatherDisplay:10.37,2013-01-31 00:59:00,
2013-01-30 20:04:00,68.0,63.3,29.50,South,180,20.7,20.7,85,0.00,CLR,SKC,0.00,WeatherDisplay:10.37,2013-01-31 01:04:00,
2013-01-30 20:09:00,69.0,64.3,29.47,SSW,202,22.0,22.0,85,0.00,CLR,SKC,0.00,WeatherDisplay:10.37,2013-01-31 01:09:00,
2013-01-30 20:14:00,68.0,63.3,29.47,SE,135,16.1,16.1,85,0.00,CLR,SKC,0.00,WeatherDisplay:10.37,2013-01-31 01:14:00,
2013-01-30 20:19:00,69.0,64.3,29.47,SSE,157,11.5,11.5,85,0.00,CLR,SKC,0.00,WeatherDisplay:10.37,2013-01-31 01:19:00,
2013-01-30 20:24:00,68.0,63.3,29.47,South,180,23.0,23.0,85,0.00,CLR,SKC,0.00,WeatherDisplay:10.37,2013-01-31 01:24:00,
2013-01-30 20:29:00,69.0,64.3,29.47,SSE,157,25.3,25.3,85,0.00,CLR,SKC,0.00,WeatherDisplay:10.37,2013-01-31 01:29:00,
2013-01-30 20:34:00,68.0,63.7,29.47,South,180,19.0,19.0,86,0.00,CLR,SKC,0.00,WeatherDisplay:10.37,2013-01-31 01:34:00,
2013-01-30 20:39:00,69.0,64.6,29.46,SSE,157,21.9,21.9,86,0.00,CLR,SKC,0.00,WeatherDisplay:10.37,2013-01-31 01:39:00,
2013-01-30 20:44:00,68.0,63.7,29.46,SSE,157,27.6,27.6,86,0.00,CLR,SKC,0.00,WeatherDisplay:10.37,2013-01-31 01:44:00,
2013-01-30 20:49:00,69.0,64.6,29.46,SSW,202,19.6,19.6,86,0.00,CLR,SKC,0.00,WeatherDisplay:10.37,2013-01-31 01:49:00,
2013-01-30 20:54:00,68.0,63.7,29.46,SSW,202,25.3,25.3,86,0.00,CLR,SKC,0.00,WeatherDisplay:10.37,2013-01-31 01:54:00,
2013-01-30 20:59:00,69.0,64.6,29.46,SW,225,24.2,24.2,86,0.00,CLR,SKC,0.00,WeatherDisplay:10.37,2013-01-31 01:59:00,
2013-01-30 21:04:00,68.0,63.7,29.46,South,180,20.7,20.7,86,0.00,CLR,SKC,0.00,WeatherDisplay:10.37,2013-01-31 02:04:00,
2013-01-30 21:09:00,69.0,64.6,29.46,South,180,16.1,16.1,86,0.00,CLR,SKC,0.00,WeatherDisplay:10.37,2013-01-31 02:09:00,
2013-01-30 21:14:00,68.0,63.7,29.46,South,180,18.4,18.4,86,0.00,CLR,SKC,0.00,WeatherDisplay:10.37,2013-01-31 02:14:00,
2013-01-30 21:19:00,69.0,64.6,29.45,South,180,20.7,20.7,86,0.00,CLR,SKC,0.00,WeatherDisplay:10.37,2013-01-31 02:19:00,
2013-01-30 21:24:00,69.0,64.6,29.45,SSE,157,19.6,19.6,86,0.00,CLR,SKC,0.00,WeatherDisplay:10.37,2013-01-31 02:24:00,
2013-01-30 21:29:00,69.0,64.6,29.43,South,180,26.5,26.5,86,0.00,CLR,SKC,0.00,WeatherDisplay:10.37,2013-01-31 02:29:00,
2013-01-30 21:34:00,69.0,64.6,29.43,SSW,202,17.3,17.3,86,0.00,CLR,SKC,0.00,WeatherDisplay:10.37,2013-01-31 02:34:00,
2013-01-30 21:39:00,69.0,64.6,29.42,SSE,157,19.6,19.6,86,0.00,CLR,SKC,0.00,WeatherDisplay:10.37,2013-01-31 02:39:00,
2013-01-30 21:44:00,69.0,64.6,29.42,South,180,16.1,16.1,86,0.00,CLR,SKC,0.00,WeatherDisplay:10.37,2013-01-31 02:44:00,
2013-01-30 21:49:00,69.0,64.6,29.42,SSW,202,15.0,15.0,86,0.00,CLR,SKC,0.00,WeatherDisplay:10.37,2013-01-31 02:49:00,
2013-01-30 21:54:00,69.0,64.6,29.42,SSW,202,25.3,25.3,86,0.00,CLR,SKC,0.00,WeatherDisplay:10.37,2013-01-31 02:54:00,
2013-01-30 21:59:00,69.0,64.6,29.43,SW,225,13.8,13.8,86,0.00,CLR,SKC,0.00,WeatherDisplay:10.37,2013-01-31 02:59:00,
2013-01-30 22:04:00,69.0,64.6,29.43,SSE,157,19.6,19.6,86,0.00,CLR,SKC,0.00,WeatherDisplay:10.37,2013-01-31 03:04:00,
2013-01-30 22:09:00,69.0,64.6,29.41,South,180,14.0,14.0,86,0.00,CLR,SKC,0.00,WeatherDisplay:10.37,2013-01-31 03:09:00,
2013-01-30 22:14:00,69.0,65.0,29.41,SSW,202,19.6,19.6,87,0.00,CLR,SKC,0.00,WeatherDisplay:10.37,2013-01-31 03:14:00,
2013-01-30 22:19:00,69.0,65.0,29.41,SSW,202,12.7,12.7,87,0.00,CLR,SKC,0.00,WeatherDisplay:10.37,2013-01-31 03:19:00,
2013-01-30 22:24:00,69.0,65.0,29.41,South,180,12.7,12.7,87,0.00,CLR,SKC,0.00,WeatherDisplay:10.37,2013-01-31 03:24:00,
2013-01-30 22:29:00,69.0,65.3,29.40,SE,135,19.6,19.6,88,0.00,CLR,SKC,0.00,WeatherDisplay:10.37,2013-01-31 03:29:00,
2013-01-30 22:34:00,69.0,65.3,29.40,SSW,202,19.6,19.6,88,0.00,CLR,SKC,0.00,WeatherDisplay:10.37,2013-01-31 03:34:00,
2013-01-30 22:39:00,69.0,65.0,29.39,SW,225,19.6,19.6,87,0.00,CLR,SKC,0.00,WeatherDisplay:10.37,2013-01-31 03:39:00,
2013-01-30 22:44:00,69.0,65.3,29.39,SSW,202,19.0,19.0,88,0.00,CLR,SKC,0.00,WeatherDisplay:10.37,2013-01-31 03:44:00,
2013-01-30 22:49:00,69.0,65.6,29.38,SE,135,20.7,20.7,89,0.00,CLR,SKC,0.00,WeatherDisplay:10.37,2013-01-31 03:49:00,
2013-01-30 22:54:00,68.0,65.3,29.38,SSE,157,19.0,19.0,91,0.00,CLR,SKC,0.00,WeatherDisplay:10.37,2013-01-31 03:54:00,
2013-01-30 22:59:00,68.0,65.3,29.38,SSE,157,18.4,18.4,91,0.00,CLR,SKC,0.00,WeatherDisplay:10.37,2013-01-31 03:59:00,
2013-01-30 23:04:00,68.0,65.9,29.38,SSW,202,25.3,25.3,93,0.00,CLR,SKC,0.00,WeatherDisplay:10.37,2013-01-31 04:04:00,
2013-01-30 23:09:00,68.0,66.5,29.37,South,180,18.4,18.4,95,0.01,RA,SKC,0.01,WeatherDisplay:10.37,2013-01-31 04:09:00,
2013-01-30 23:14:00,67.0,66.1,29.37,South,180,25.3,25.3,97,0.01,RA,SKC,0.01,WeatherDisplay:10.37,2013-01-31 04:14:00,
2013-01-30 23:19:00,67.0,66.4,29.37,SW,225,13.8,14.5,98,0.01,,SKC,0.01,WeatherDisplay:10.37,2013-01-31 04:19:00,
2013-01-30 23:24:00,67.0,67.0,29.37,South,180,19.0,19.0,100,0.01,CLR,SKC,0.01,WeatherDisplay:10.37,2013-01-31 04:24:00,
2013-01-30 23:29:00,67.0,67.0,29.36,East,90,21.9,21.9,100,0.01,CLR,SKC,0.01,WeatherDisplay:10.37,2013-01-31 04:29:00,
2013-01-30 23:34:00,67.0,67.0,29.36,South,180,20.7,20.7,100,0.01,CLR,SKC,0.01,WeatherDisplay:10.37,2013-01-31 04:34:00,
2013-01-30 23:39:00,67.0,66.7,29.34,SSW,202,18.4,18.4,99,0.01,CLR,SKC,0.01,WeatherDisplay:10.37,2013-01-31 04:39:00,
2013-01-30 23:44:00,67.0,67.0,29.34,SSW,202,12.0,12.0,100,0.01,CLR,SKC,0.01,WeatherDisplay:10.37,2013-01-31 04:44:00,
2013-01-30 23:49:00,67.0,66.4,29.33,SSW,202,21.9,21.9,98,0.01,CLR,SKC,0.01,WeatherDisplay:10.37,2013-01-31 04:49:00,
2013-01-30 23:54:00,67.0,66.7,29.33,SE,135,21.9,21.9,99,0.01,CLR,SKC,0.01,WeatherDisplay:10.37,2013-01-31 04:54:00,
2013-01-30 23:59:00,67.0,67.0,29.31,SSW,202,19.6,19.6,100,0.02,RA,SKC,0.02,WeatherDisplay:10.37,2013-01-31 04:59:00,